Regional Weather Roundup
Issued by NWS

Home | Current Version | Previous Version | Graphics & Text | Print | Product List | Glossary On
Versions: 1 2 3 4 5 6 7 8 9 10 11 12 13 14 15 16 17 18 19 20 21 22 23 24 25 26 27 28 29 30 31 32 33 34 35 36 37 38 39 40 41 42 43 44 45 46 47 48 49 50
000
ASUS43 KIND 181359
RWRIN

WEATHER ROUNDUP FOR INDIANA
NATIONAL WEATHER SERVICE INDIANAPOLIS IN
900 AM EST MON DEC 18 2017

NOTE: "FAIR" INDICATES FEW OR NO CLOUDS BELOW 12,000 FEET WITH NO
SIGNIFICANT WEATHER AND/OR OBSTRUCTIONS TO VISIBILITY.

* - STATION DOES NOT REPORT WEATHER SUCH AS PRECIPITATION OR FOG.

+ - STATION NOT QUALITY CONTROLLED BY THE NATIONAL WEATHER SERVICE.
    USE DATA WITH CAUTION...ESPECIALLY DEWPOINT AND RELATIVE
    HUMIDITY OBSERVATIONS.

INZ001>003-010>013-019-020-181500-
NORTHWEST INDIANA

CITY           SKY/WX    TMP DP  RH WIND       PRES   REMARKS
KNOX *+        CLOUDY    41  41 100 SW9       29.97S
MONTICELLO +   CLOUDY    42  41  95 SW10      30.00S FOG
VALPARAISO     CLOUDY    45  43  93 SW13      29.97S FOG

$$

LMZ046-743>745-181500-
SOUTHERN LAKE MICHIGAN

STATION/POSITION TIME  TEMP    WIND        PRES    WAVE
                       AIR SEA DIR/SP/G            HT
                 (UTC) (F)     (DEG/KT/KT) (MB)    (FT)
BURNS HARBOR     1340   43     210/ 11/ 13 1014.9S
MICHIGAN CITY    1330   42     210/ 15/ 17   N/A

$$

INZ004-005-014>016-021>024-181500-
NORTH CENTRAL INDIANA

CITY           SKY/WX    TMP DP  RH WIND       PRES   REMARKS
ELKHART        DRZL/FOG  39  39 100 SW8       29.95S VSB 1   WCI  34
GOSHEN         FOG       41  40  96 SW13      29.96S VSB 1
SOUTH BEND     FOG       39  39 100 SW10      29.96S VSB 1/4 WCI  32
WARSAW +       LGT RAIN  41  41 100 SW9       29.98R

$$

INZ006>009-017-018-025>027-181500-
NORTHEAST INDIANA

CITY           SKY/WX    TMP DP  RH WIND       PRES   REMARKS
FORT WAYNE     LGT RAIN  41  40  96 SW13      29.99S FOG
KENDALLVILLE + CLOUDY    39  39 100 SW10      29.96S FOG     WCI  32

$$

INZ028-029-035-036-043>045-051>053-181500-
WEST CENTRAL INDIANA

CITY           SKY/WX    TMP DP  RH WIND       PRES   REMARKS
LAFAYETTE      CLOUDY    43  43 100 SW7       30.02S FOG
TERRE HAUTE    CLOUDY    45  42  89 SW8       30.08R

$$

INZ030>032-037>040-046>048-054>057-064-065-181500-
CENTRAL INDIANA

CITY           SKY/WX    TMP DP  RH WIND       PRES   REMARKS
ANDERSON       CLOUDY    41  41 100 S6        30.04R
COLUMBUS       CLOUDY    41  41 100 S9        30.08S FOG
INDIANAPOLIS   CLOUDY    43  41  93 SW13      30.06R FOG
-EAGLE CREEK   CLOUDY    43  41  93 SW6       30.05R FOG
KOKOMO +       CLOUDY    42  41  96 SW14      30.02S FOG
MT COMFORT *+  CLOUDY    41  41 100 SW9       30.06R
SHELBYVILLE    CLOUDY    43  40  89 SW10      30.06R FOG

$$

INZ033-034-041-042-049-050-058-059-181500-
EAST CENTRAL INDIANA

CITY           SKY/WX    TMP DP  RH WIND       PRES   REMARKS
MUNCIE         CLOUDY    42  40  92 SW7       30.03R FOG
RICHMOND +     CLOUDY    37  37 100 SW10      30.06R FOG     WCI  30

$$

INZ060-061-067>069-081>083-085>088-181500-
SOUTHWEST INDIANA

CITY           SKY/WX    TMP DP  RH WIND       PRES   REMARKS
EVANSVILLE     LGT RAIN  45  45 100 SW8       30.13R FOG
HUNTINGBURG +  LGT RAIN  44  43  96 S8        30.12R FOG

$$

INZ062-063-066-070>080-084-089>092-181500-
SOUTH CENTRAL AND SOUTHEAST INDIANA

CITY           SKY/WX    TMP DP  RH WIND       PRES   REMARKS
BLOOMINGTON    CLOUDY    44  41  89 SW8       30.08S FOG
MADISON *+     CLOUDY    43  41  93 SW6       30.12R
SEYMOUR +      CLOUDY    45  45 100 S7        30.10R FOG

$$





USA.gov is the U.S. government's official web portal to all federal, state and local government web resources and services.